Wetbulb
59.17 54.31 56.22 54.23 44.16 41.29 38.37 43.06 46.80 48.14 50.91 61.24 63.86 62.59 60.45 60.86 59.00 52.84 65.53 67.33 68.47 69.22 70.77 71.78 72.34 73.19 73.51 73.65 73.61 73.51 73.86 74.05 74.24 74.20 74.12 74.25 74.15 74.07 73.87 73.77 73.76 74.25 74.48 73.21 73.53 73.26 71.97 71.14 70.76
56.39 55.97 53.44 47.60 40.54 35.46 37.77 45.35 48.11 53.21 60.57 64.38 64.77 63.66 62.00 60.51 65.81 64.74 65.10 67.56 68.71 69.70 70.46 70.71 72.02 72.74 73.16 73.29 73.42 73.65 74.25 74.11 73.94 73.90 74.07 74.17 74.24 73.94 73.57 73.24 73.54 73.90 74.18 73.28 73.25 73.01 73.16 71.13 70.16
55.24 55.73 47.67 43.24 37.55 36.64 38.64 44.70 47.20 56.25 62.07 59.88 64.11 65.89 64.26 62.23 65.84 66.86 68.10 68.46 69.11 69.15 70.17 70.93 71.38 72.11 72.80 72.96 72.93 73.21 73.52 73.40 73.29 73.51 74.03 74.19 74.17 74.05 73.79 73.15 73.15 73.78 73.93 73.01 72.77 72.84 72.94 71.07 69.59
52.78 48.90 46.53 40.77 39.38 42.99 44.27 47.19 48.36 52.02 57.81 63.02 64.88 62.82 66.90 69.19 67.63 68.67 68.77 68.81 68.28 68.92 70.11 69.98 70.29 71.43 72.47 72.87 72.83 72.80 72.72 72.41 72.49 73.00 73.90 74.21 74.36 73.90 73.45 72.72 72.88 73.28 73.38 73.26 73.37 73.12 72.10 70.62 69.99
50.02 43.83 38.47 37.31 40.79 44.09 46.62 48.18 49.03 48.42 55.74 62.09 63.90 62.35 63.90 67.02 69.76 69.53 68.51 69.24 68.29 68.66 69.74 69.73 69.81 70.85 71.99 72.62 72.47 72.11 71.82 71.81 72.32 72.84 73.02 73.35 73.39 72.75 72.03 71.88 72.15 72.52 72.43 72.22 71.97 71.54 70.88 70.55 70.56
45.38 42.64 36.33 34.57 39.65 44.06 46.12 47.64 47.89 49.28 56.09 62.27 62.78 63.01 63.46 68.11 68.61 68.95 69.91 69.00 68.82 68.76 69.91 70.68 71.19 70.97 70.84 71.08 70.97 70.66 70.94 71.34 71.68 71.96 72.30 72.61 72.19 71.73 71.43 71.14 71.16 71.04 70.59 70.25 70.08 69.81 69.63 69.63 69.74
42.88 40.11 37.60 37.61 39.88 42.34 45.91 49.24 48.74 49.50 49.73 56.01 65.39 61.35 63.95 65.37 68.85 69.69 69.01 68.91 68.96 69.52 69.79 70.12 70.59 70.55 69.60 69.02 69.28 69.46 70.14 70.57 70.99 71.00 70.84 70.61 70.27 69.82 69.87 69.24 69.23 68.92 68.69 68.56 68.35 68.06 67.85 67.98 67.58
45.25 42.97 37.77 38.25 39.76 41.26 46.47 48.71 50.67 49.65 49.62 65.64 65.75 60.91 60.74 65.49 68.88 69.07 68.74 68.34 68.70 69.22 69.31 68.77 68.82 68.89 67.73 68.41 68.68 68.85 69.29 69.56 69.80 69.87 69.30 68.79 69.03 68.41 67.52 67.30 67.23 67.17 66.84 66.69 66.54 66.53 66.50 66.53 66.23
44.67 38.35 35.71 38.74 39.71 42.89 47.77 44.70 49.25 50.83 61.57 63.37 64.21 64.77 66.77 67.98 68.63 67.78 66.99 67.19 67.44 67.80 67.25 68.09 67.81 67.21 67.61 68.06 68.86 68.96 69.24 69.03 68.69 68.55 68.06 66.50 66.74 65.41 64.28 65.38 65.43 64.31 64.18 65.07 65.00 65.40 64.00 63.51 63.54
41.92 36.71 39.73 44.12 45.05 45.42 46.85 43.09 46.57 46.89 54.78 61.84 63.49 66.63 67.46 67.64 67.10 65.90 65.73 64.96 65.41 65.08 66.43 67.46 66.48 66.10 66.79 67.63 66.72 66.32 67.75 66.65 66.72 66.63 67.13 67.15 65.63 63.11 63.53 63.60 63.82 62.95 62.09 62.15 62.02 61.60 60.51 58.98 57.38
40.38 40.00 43.28 46.14 48.51 46.41 45.54 44.72 46.87 46.11 46.10 60.88 61.98 64.45 65.72 66.15 66.13 65.78 66.08 66.10 65.52 65.74 66.68 66.61 65.51 65.11 64.63 65.09 65.02 65.45 65.52 65.00 64.91 66.37 68.11 65.38 64.16 62.58 61.09 57.76 55.22 54.26 56.50 53.47 54.43 53.79 53.83 53.44 54.17
41.49 45.19 45.19 46.03 46.80 45.54 44.79 45.35 46.67 46.44 48.74 57.30 65.28 66.12 65.68 65.14 65.58 65.81 65.83 66.68 66.88 66.93 66.99 66.50 65.45 64.86 64.33 65.05 65.07 64.96 63.11 60.84 57.96 58.98 63.07 62.24 57.34 55.05 53.80 52.50 51.49 50.74 50.50 50.21 50.22 50.30 51.28 51.09 52.53
44.14 45.05 46.87 47.67 47.71 46.07 47.28 46.18 46.14 47.37 49.46 60.55 65.32 65.93 64.88 65.04 65.26 66.15 66.90 67.30 67.45 66.57 66.41 66.52 65.68 64.97 64.90 64.28 62.73 63.19 59.76 58.51 56.28 56.46 55.95 55.70 53.57 52.18 50.41 49.55 49.81 49.10 49.45 49.05 48.34 48.78 49.49 49.73 50.62
46.40 47.22 46.94 46.95 46.81 46.20 46.10 45.89 44.24 48.21 48.82 53.16 63.87 63.97 64.69 64.50 64.90 65.01 65.73 65.97 66.59 67.04 66.80 66.98 66.61 66.57 63.77 60.88 59.03 58.05 55.59 53.21 51.90 52.32 52.27 52.72 51.56 49.99 49.06 48.42 48.44 48.43 47.87 47.40 47.60 47.08 47.70 47.49 48.93
47.35 44.00 46.44 47.51 45.96 45.14 45.32 42.01 44.19 48.07 47.66 49.56 61.77 62.78 63.47 64.23 64.71 64.78 65.78 65.85 66.49 66.61 66.85 66.28 66.54 64.30 60.83 57.18 55.89 53.90 52.72 51.42 49.70 50.03 50.77 50.32 49.85 49.30 48.17 47.44 47.39 47.31 46.71 47.18 47.17 47.19 47.15 46.94 48.07
43.41 42.45 37.79 44.89 45.99 47.25 44.18 39.52 45.13 47.50 45.60 46.30 59.30 61.06 62.12 63.05 64.05 64.99 65.92 66.68 66.63 66.23 65.91 65.79 63.82 60.19 58.00 55.01 53.38 52.31 50.56 49.48 48.65 48.55 48.97 49.77 49.79 48.80 47.39 46.88 46.72 46.88 46.88 46.56 46.20 46.07 45.35 45.26 44.60
41.14 34.95 38.72 41.92 46.77 45.31 43.16 40.46 46.19 48.69 45.46 45.61 49.76 59.68 61.13 62.03 63.61 63.31 63.99 66.78 66.37 65.57 65.16 60.55 58.58 57.54 55.88 54.26 51.97 50.49 49.15 48.42 47.90 47.92 47.84 48.95 49.53 49.13 47.38 46.80 46.40 46.70 45.82 45.21 45.56 44.61 44.71 42.77 42.42
35.77 36.96 36.54 38.28 43.37 43.50 42.77 41.45 44.37 45.80 44.43 45.53 45.11 53.75 59.29 60.76 62.64 61.49 63.35 65.42 66.11 64.70 61.05 58.19 57.52 56.23 54.98 53.39 50.82 48.40 47.31 47.19 47.23 46.89 47.33 48.33 48.75 48.73 46.65 46.29 46.02 45.80 44.26 43.39 43.34 43.17 43.46 42.51 41.69
41.72 40.39 39.49 43.04 46.95 44.24 43.84 41.81 44.29 45.55 41.26 42.28 43.70 43.85 50.89 59.25 62.53 60.78 62.27 62.86 62.07 60.18 58.11 57.27 55.64 54.00 52.94 50.67 48.15 47.12 45.15 45.87 46.35 46.94 47.05 46.52 47.54 47.46 45.96 45.77 45.23 44.37 42.76 41.99 42.66 42.14 42.21 42.38 42.05
41.57 39.93 39.72 43.81 46.69 45.98 43.32 41.75 44.41 45.34 45.34 44.87 45.19 44.58 43.85 53.75 57.18 58.32 59.71 60.40 59.03 57.70 57.28 56.46 54.70 52.96 52.18 50.54 47.93 45.93 46.45 45.28 45.58 45.52 45.21 45.83 45.88 46.11 45.28 44.41 44.06 43.02 41.82 41.25 40.74 41.11 40.16 40.11 40.34
41.25 39.70 40.33 40.94 44.58 44.05 42.19 41.50 41.62 46.03 46.24 47.30 46.44 46.98 46.06 45.81 50.78 57.26 56.96 57.35 56.94 56.33 56.01 55.30 53.33 52.45 51.54 49.77 47.18 46.24 45.58 44.60 43.44 42.78 43.06 43.74 45.23 45.39 44.59 43.63 43.03 42.09 41.47 39.61 39.27 39.21 39.14 37.83 39.06
37.98 44.63 44.11 42.86 40.84 36.79 41.20 34.32 40.89 45.17 46.73 48.12 45.82 45.95 46.14 45.11 49.91 57.33 56.00 55.69 55.18 55.17 55.30 55.07 53.56 52.20 51.08 49.15 46.78 45.75 44.53 42.58 41.69 41.67 41.90 42.72 44.22 44.11 44.12 43.36 41.47 40.68 40.05 39.26 39.28 39.77 38.39 38.26 37.09
42.24 47.08 45.46 44.61 39.87 37.05 38.42 36.08 37.77 43.44 42.10 43.20 45.41 47.71 49.03 48.27 53.79 54.38 55.31 55.33 54.59 54.68 54.21 53.73 53.12 51.93 50.57 48.93 46.95 45.35 44.37 42.23 43.44 42.73 42.44 42.17 42.47 42.32 41.82 40.77 39.89 39.47 39.23 38.13 37.82 37.48 37.73 37.70 36.28
48.09 44.64 42.52 41.40 38.99 34.18 38.87 37.11 34.48 36.97 40.82 43.77 46.09 48.12 49.22 48.16 52.31 53.29 54.47 53.48 52.62 53.16 53.26 53.03 52.63 52.22 49.92 48.47 46.40 45.36 43.78 43.46 42.63 42.08 41.22 41.05 41.16 41.00 40.17 39.96 39.15 38.81 38.31 38.26 37.91 38.02 37.17 36.05 35.58
45.21 40.91 32.80 29.27 30.34 32.10 40.69 37.49 37.29 41.58 44.07 44.92 45.00 46.02 47.97 48.34 48.36 49.88 51.01 50.98 51.06 51.38 51.80 52.19 52.53 51.76 48.82 46.44 46.27 45.63 44.49 44.13 42.78 42.03 41.23 40.25 39.73 39.29 38.53 38.16 37.96 37.68 37.83 38.14 37.94 37.11 37.27 36.18 35.37
42.42 41.40 31.25 26.31 26.91 30.33 38.86 34.24 37.50 44.10 45.76 46.19 46.83 46.90 47.67 48.02 48.42 48.75 50.28 51.51 51.65 51.90 52.30 53.30 52.68 49.36 48.18 46.28 46.16 45.32 44.32 43.88 43.24 42.66 41.92 40.62 39.18 38.04 37.68 37.10 37.04 37.52 37.88 37.50 36.80 36.50 35.64 36.31 33.89
40.50 38.96 43.42 36.85 36.47 31.25 32.56 38.31 42.99 44.57 44.22 45.14 45.38 46.04 46.16 47.53 47.77 48.85 50.09 51.51 52.09 51.66 50.40 49.73 49.42 48.54 47.79 46.14 45.14 44.19 44.40 42.95 42.64 40.97 40.24 39.51 38.24 38.42 37.84 37.01 35.75 36.43 36.24 36.37 35.45 35.38 33.52 34.48 33.58
41.48 44.45 36.55 35.87 29.52 27.64 30.73 35.35 34.13 40.04 41.25 43.70 44.62 45.10 46.67 49.17 49.62 48.57 48.98 49.24 49.15 48.85 47.88 47.94 47.76 46.04 44.66 43.79 43.20 41.64 39.85 39.41 38.78 38.78 37.90 38.36 38.41 38.71 37.12 35.85 35.64 36.21 35.77 36.60 34.49 33.87 33.87 33.33 32.84
36.81 37.22 38.48 38.60 36.00 30.20 27.88 31.40 38.96 39.60 39.91 40.22 41.97 45.48 46.28 47.84 48.77 49.06 49.17 49.33 49.78 48.88 47.56 46.36 45.29 44.13 42.69 41.76 41.04 40.11 39.18 38.48 38.01 37.21 37.01 37.53 38.01 37.82 36.03 36.19 36.15 35.79 35.51 34.49 33.60 33.54 33.09 30.96 29.38
38.90 36.87 37.67 30.34 31.51 33.49 31.15 31.35 41.76 40.87 41.35 41.57 42.11 44.07 44.80 46.63 46.93 47.51 47.85 47.38 46.60 45.92 44.95 44.30 43.48 43.11 42.03 40.71 39.88 38.95 38.82 38.32 36.76 35.68 37.38 37.84 37.33 37.15 36.96 36.69 36.39 35.93 34.86 33.27 32.53 32.47 31.67 29.38 27.30
MSLP
1010.74 1010.46 1010.58 1011.23 1012.88 1013.04 1012.02 1010.12 1007.87 1006.21 1005.34 1005.18 1005.43 1005.63 1006.62 1006.86 1007.70 1009.53 1008.63 1009.29 1009.99 1010.79 1011.25 1011.51 1011.73 1011.95 1012.09 1012.39 1012.60 1012.91 1013.24 1013.52 1013.91 1014.24 1014.55 1014.68 1014.93 1015.21 1015.52 1015.66 1015.80 1016.02 1016.21 1016.30 1016.47 1016.62 1016.79 1016.88 1016.94
1010.65 1010.39 1010.96 1011.85 1012.93 1013.28 1011.34 1009.04 1007.46 1006.04 1005.36 1005.28 1005.28 1006.10 1006.63 1007.66 1007.92 1008.97 1009.50 1009.98 1009.99 1010.62 1011.25 1011.57 1011.88 1012.03 1012.27 1012.55 1012.85 1013.05 1013.30 1013.67 1013.97 1014.33 1014.65 1014.95 1015.21 1015.45 1015.72 1015.83 1016.05 1016.27 1016.35 1016.45 1016.57 1016.66 1016.84 1016.89 1016.97
1010.44 1010.53 1011.83 1012.54 1012.85 1012.57 1010.57 1008.57 1007.26 1006.22 1005.26 1004.77 1005.75 1006.19 1006.81 1007.73 1008.30 1008.63 1009.33 1010.03 1010.35 1010.96 1011.36 1011.73 1011.97 1012.18 1012.37 1012.66 1012.97 1013.24 1013.44 1013.82 1014.19 1014.54 1014.90 1015.15 1015.53 1015.76 1015.96 1016.07 1016.33 1016.47 1016.57 1016.62 1016.72 1016.79 1017.00 1017.05 1017.10
1010.29 1011.28 1012.34 1012.59 1012.29 1010.70 1009.50 1008.35 1007.15 1006.05 1005.03 1004.91 1005.39 1006.59 1006.72 1006.81 1007.34 1008.05 1009.34 1010.08 1010.71 1011.35 1011.54 1011.96 1012.23 1012.48 1012.63 1012.83 1013.21 1013.57 1013.80 1013.96 1014.51 1014.72 1015.04 1015.39 1015.77 1016.14 1016.29 1016.46 1016.58 1016.72 1016.84 1016.86 1016.90 1016.99 1017.12 1017.16 1017.14
1010.78 1011.96 1012.75 1012.80 1011.71 1009.96 1008.82 1007.34 1006.11 1005.49 1005.10 1005.08 1005.26 1006.80 1007.33 1007.41 1007.39 1008.04 1009.20 1010.01 1010.61 1011.58 1011.83 1012.24 1012.43 1012.67 1012.89 1013.13 1013.39 1013.93 1014.19 1014.24 1014.82 1015.14 1015.36 1015.71 1015.85 1016.34 1016.61 1016.63 1016.87 1017.06 1017.16 1017.23 1017.29 1017.32 1017.27 1017.23 1017.22
1011.70 1012.31 1012.99 1012.80 1011.49 1009.41 1008.30 1006.67 1005.39 1004.54 1004.24 1005.16 1005.70 1006.61 1007.68 1007.92 1007.95 1008.49 1009.21 1010.17 1010.89 1011.41 1012.13 1012.49 1012.80 1012.91 1013.08 1013.37 1013.70 1014.11 1014.48 1014.58 1014.98 1015.19 1015.59 1015.88 1016.15 1016.46 1016.96 1017.02 1017.18 1017.35 1017.50 1017.53 1017.56 1017.53 1017.43 1017.37 1017.34
1011.97 1012.73 1012.52 1011.92 1011.08 1009.26 1007.82 1006.20 1005.49 1004.59 1004.30 1004.79 1005.13 1006.83 1007.90 1008.34 1008.45 1008.76 1009.51 1010.31 1011.32 1011.66 1012.14 1012.62 1012.98 1013.33 1013.49 1013.66 1013.94 1014.33 1014.73 1015.01 1015.14 1015.39 1015.63 1016.13 1016.37 1016.66 1017.12 1017.32 1017.41 1017.47 1017.57 1017.70 1017.72 1017.72 1017.64 1017.60 1017.51
1011.50 1012.35 1012.09 1011.47 1010.59 1009.01 1007.53 1006.49 1005.36 1004.98 1004.64 1005.08 1005.58 1006.66 1007.63 1008.03 1008.72 1009.27 1009.99 1010.72 1011.36 1011.82 1012.20 1012.54 1013.06 1013.40 1013.64 1013.99 1014.16 1014.35 1015.10 1015.44 1015.43 1015.74 1015.99 1016.22 1016.47 1016.70 1017.04 1017.30 1017.42 1017.57 1017.70 1017.79 1017.88 1017.83 1017.86 1017.75 1017.59
1011.11 1012.22 1011.96 1010.96 1010.09 1008.49 1007.22 1007.00 1005.26 1005.07 1005.25 1005.26 1005.47 1005.75 1006.05 1007.85 1008.65 1009.55 1010.57 1011.24 1011.86 1011.98 1012.45 1012.82 1013.17 1013.46 1013.70 1014.08 1014.41 1014.38 1014.90 1015.42 1015.55 1015.82 1016.01 1016.29 1016.61 1016.79 1017.12 1017.36 1017.54 1017.64 1017.72 1017.72 1017.62 1017.57 1017.75 1017.82 1017.72
1011.11 1011.66 1010.84 1009.82 1009.04 1008.28 1007.17 1006.81 1006.00 1005.68 1005.84 1006.04 1005.82 1005.84 1006.86 1007.84 1008.39 1009.26 1010.18 1010.85 1011.57 1011.77 1012.30 1012.82 1013.24 1013.54 1013.72 1014.01 1014.57 1014.65 1014.89 1015.38 1015.46 1015.64 1015.95 1016.22 1016.54 1016.88 1017.12 1017.42 1017.69 1017.78 1017.83 1017.85 1017.86 1017.84 1017.85 1017.88 1017.91
1010.42 1010.22 1009.77 1008.85 1008.27 1007.71 1007.10 1006.41 1005.91 1005.97 1005.90 1006.24 1006.46 1006.29 1006.88 1007.89 1008.62 1008.97 1009.85 1010.24 1010.73 1011.42 1011.80 1012.46 1013.03 1013.45 1013.73 1014.08 1014.48 1014.69 1014.80 1015.36 1015.59 1015.74 1015.81 1016.19 1016.57 1017.03 1017.48 1017.75 1018.05 1018.11 1018.17 1018.34 1018.23 1018.20 1018.18 1018.09 1018.04
1010.47 1009.54 1009.25 1008.32 1007.54 1007.67 1007.03 1006.01 1005.64 1005.84 1005.37 1005.72 1006.11 1006.13 1006.69 1007.45 1007.92 1008.41 1009.36 1009.93 1010.30 1011.15 1011.52 1012.34 1013.00 1013.53 1013.66 1013.80 1014.22 1014.40 1014.74 1015.24 1015.62 1015.60 1015.70 1016.19 1016.67 1017.14 1017.62 1018.06 1018.37 1018.44 1018.55 1018.62 1018.67 1018.63 1018.53 1018.43 1018.20
1009.88 1009.38 1008.69 1008.17 1007.41 1007.21 1006.77 1006.32 1005.73 1005.33 1004.92 1005.39 1006.21 1006.92 1007.19 1007.27 1007.72 1008.35 1009.00 1010.09 1010.63 1011.19 1011.63 1012.31 1013.03 1013.45 1013.52 1013.78 1014.14 1014.39 1014.63 1014.98 1015.46 1015.65 1015.97 1016.32 1016.87 1017.41 1017.96 1018.26 1018.36 1018.55 1018.70 1018.85 1018.98 1018.89 1018.77 1018.68 1018.49
1009.89 1009.53 1008.81 1007.89 1007.39 1007.00 1006.52 1006.20 1005.92 1004.93 1004.92 1005.34 1006.00 1006.59 1006.89 1007.05 1007.02 1007.95 1008.55 1009.30 1009.87 1010.40 1011.05 1011.57 1012.52 1013.17 1013.39 1013.94 1014.46 1014.85 1014.99 1015.45 1015.73 1016.16 1016.46 1016.63 1016.82 1017.26 1017.77 1018.27 1018.42 1018.61 1018.71 1018.79 1018.88 1019.01 1018.98 1018.96 1018.85
1010.38 1009.90 1008.75 1007.71 1007.19 1006.71 1006.28 1006.26 1005.74 1004.60 1004.86 1005.40 1005.72 1006.32 1006.55 1006.65 1007.09 1007.12 1007.34 1007.91 1008.77 1009.69 1010.38 1010.85 1011.72 1012.77 1013.48 1014.11 1014.81 1015.42 1015.67 1015.90 1016.37 1016.65 1016.74 1016.80 1017.02 1017.37 1017.75 1018.15 1018.49 1018.71 1018.80 1018.80 1018.80 1018.85 1018.90 1019.04 1019.05
1010.79 1010.30 1009.20 1007.23 1007.06 1006.30 1006.58 1006.37 1005.31 1004.24 1004.89 1005.18 1005.61 1006.04 1006.24 1006.40 1006.05 1006.34 1006.58 1007.01 1007.93 1008.87 1009.72 1010.51 1011.23 1012.21 1013.44 1014.40 1015.41 1016.15 1016.71 1016.91 1017.28 1017.43 1017.44 1017.36 1017.55 1017.76 1018.16 1018.52 1018.83 1018.99 1018.95 1019.17 1019.48 1019.59 1019.59 1019.55 1019.48
1011.16 1010.44 1009.34 1008.02 1006.37 1006.58 1006.46 1006.04 1004.66 1003.75 1004.75 1004.92 1005.34 1005.51 1005.63 1005.65 1005.70 1005.80 1006.09 1006.50 1007.38 1008.28 1009.33 1010.48 1011.37 1012.03 1013.14 1014.32 1015.19 1016.40 1017.14 1017.34 1017.65 1017.85 1018.11 1018.04 1018.03 1018.08 1018.30 1018.70 1019.04 1019.09 1019.26 1019.47 1019.79 1019.90 1019.79 1019.85 1019.70
1010.74 1010.35 1009.35 1008.47 1006.51 1006.55 1006.23 1005.87 1004.77 1004.03 1004.32 1004.37 1004.51 1004.93 1005.07 1004.84 1004.49 1004.96 1005.63 1006.44 1007.09 1008.17 1009.12 1009.96 1010.97 1011.65 1012.58 1013.78 1015.04 1016.09 1017.01 1017.71 1018.17 1018.49 1018.63 1018.60 1018.63 1018.61 1018.78 1019.07 1019.33 1019.39 1019.73 1019.97 1020.02 1020.13 1020.10 1020.10 1020.01
1010.53 1010.06 1009.22 1008.09 1006.50 1006.96 1006.24 1005.68 1005.13 1004.68 1004.64 1004.74 1004.38 1004.49 1004.39 1004.00 1003.39 1004.63 1005.26 1006.14 1007.40 1008.44 1009.20 1009.98 1011.07 1011.91 1012.43 1013.66 1014.70 1015.86 1016.96 1017.87 1018.44 1018.66 1019.03 1019.07 1019.04 1019.11 1019.30 1019.50 1019.68 1019.88 1020.04 1020.15 1020.08 1020.28 1020.45 1020.46 1020.09
1010.27 1009.79 1008.91 1007.85 1006.80 1006.19 1005.80 1005.19 1004.88 1004.55 1004.40 1004.05 1003.85 1003.73 1003.51 1003.41 1003.91 1004.82 1005.78 1006.50 1007.08 1007.83 1009.01 1009.97 1010.92 1011.78 1012.48 1013.12 1014.22 1014.96 1016.25 1017.50 1018.18 1018.78 1019.28 1019.39 1019.49 1019.66 1019.79 1019.93 1020.13 1020.04 1020.10 1020.21 1020.20 1020.24 1020.63 1020.79 1020.64
1009.58 1009.16 1008.41 1007.72 1006.65 1005.84 1005.52 1004.67 1004.75 1004.41 1004.23 1003.95 1003.53 1003.07 1003.01 1003.00 1003.36 1004.38 1005.51 1006.46 1007.33 1008.13 1008.84 1009.53 1010.61 1011.54 1012.43 1013.11 1014.11 1015.47 1016.29 1017.44 1018.52 1019.28 1019.81 1020.08 1020.05 1020.09 1020.13 1020.42 1020.51 1020.42 1020.41 1020.70 1020.71 1020.66 1020.72 1021.22 1021.38
1008.47 1008.09 1007.69 1007.38 1007.34 1006.70 1006.03 1004.73 1004.87 1004.66 1004.35 1004.12 1004.78 1004.43 1003.75 1003.02 1003.02 1003.45 1004.68 1005.86 1006.80 1007.74 1008.86 1009.76 1010.70 1011.65 1012.73 1013.47 1014.23 1014.90 1015.61 1016.87 1017.93 1018.72 1019.61 1020.17 1020.30 1020.52 1020.68 1020.83 1020.97 1021.05 1021.08 1021.12 1020.96 1020.84 1020.86 1021.16 1021.71
1007.57 1007.52 1007.18 1007.17 1007.17 1006.94 1006.72 1006.41 1004.92 1005.02 1005.46 1005.73 1005.51 1005.03 1004.23 1003.11 1002.66 1003.47 1003.98 1004.86 1006.70 1008.17 1009.19 1010.24 1011.09 1011.89 1012.83 1013.42 1014.09 1014.76 1015.53 1016.29 1017.27 1018.12 1018.95 1019.64 1020.07 1020.22 1020.47 1020.87 1021.17 1021.33 1021.30 1021.26 1021.04 1021.07 1021.28 1021.46 1021.66
1007.22 1007.46 1007.26 1007.12 1007.45 1007.15 1007.15 1007.33 1006.10 1006.66 1006.77 1006.84 1006.32 1006.05 1005.15 1003.30 1003.31 1004.54 1005.59 1006.53 1007.57 1008.69 1009.78 1010.82 1011.63 1012.47 1013.17 1013.54 1013.82 1014.33 1015.16 1016.03 1017.09 1018.10 1018.84 1019.54 1020.04 1020.46 1020.72 1020.99 1021.35 1021.47 1021.45 1021.34 1021.32 1021.41 1021.65 1021.97 1022.32
1007.14 1008.20 1008.93 1008.33 1008.30 1006.94 1006.82 1007.03 1006.59 1007.40 1007.69 1007.64 1007.33 1006.95 1006.47 1006.09 1006.40 1006.87 1007.67 1007.72 1008.51 1009.54 1010.64 1011.72 1012.59 1013.15 1013.65 1014.04 1014.35 1014.64 1015.13 1015.94 1016.54 1017.37 1018.16 1019.12 1019.88 1020.38 1020.71 1020.98 1021.34 1021.41 1021.35 1021.24 1021.40 1021.76 1021.93 1022.25 1022.49
1005.95 1007.31 1008.66 1008.67 1008.75 1008.18 1007.49 1007.15 1006.97 1007.77 1008.17 1008.09 1007.79 1007.91 1007.68 1007.51 1008.02 1008.42 1009.04 1009.62 1010.31 1011.14 1011.80 1012.35 1013.18 1013.69 1014.08 1014.54 1014.72 1014.90 1015.60 1016.40 1016.92 1017.33 1018.25 1019.21 1019.91 1020.68 1021.21 1021.53 1021.53 1021.58 1021.55 1021.38 1021.33 1022.02 1022.16 1022.40 1022.93
1005.47 1006.36 1007.62 1008.86 1009.35 1009.66 1008.61 1007.99 1008.16 1008.26 1008.66 1008.53 1008.48 1008.41 1008.73 1008.85 1008.92 1009.36 1009.93 1010.52 1011.24 1012.15 1012.75 1012.89 1013.44 1013.91 1014.71 1015.01 1015.30 1015.73 1016.16 1016.67 1017.18 1017.82 1018.55 1019.31 1020.08 1020.81 1021.41 1021.72 1021.91 1021.90 1021.79 1021.85 1021.94 1022.29 1022.32 1022.69 1023.05
1004.41 1005.70 1008.09 1010.03 1010.51 1010.24 1009.08 1008.31 1008.04 1008.48 1009.02 1008.82 1009.00 1009.16 1009.11 1009.11 1009.79 1009.90 1010.44 1010.84 1011.03 1011.71 1012.08 1012.42 1013.17 1014.08 1014.85 1015.23 1015.54 1016.09 1016.62 1016.96 1017.41 1017.91 1018.69 1019.32 1019.95 1020.51 1021.38 1021.97 1022.15 1022.03 1022.16 1022.13 1022.41 1022.67 1023.11 1023.03 1023.59
1005.04 1006.09 1008.26 1009.97 1010.77 1010.41 1009.91 1009.23 1008.38 1008.69 1008.92 1009.05 1009.26 1009.10 1008.95 1009.15 1009.54 1009.93 1010.01 1010.21 1010.59 1011.18 1011.64 1012.08 1012.98 1013.83 1014.55 1015.03 1015.53 1016.16 1016.88 1017.45 1017.88 1018.34 1018.98 1019.50 1019.97 1020.50 1021.11 1021.88 1022.21 1022.38 1022.63 1022.58 1022.75 1023.17 1023.42 1023.74 1024.43
1005.70 1006.65 1008.48 1010.34 1011.06 1010.79 1010.29 1009.43 1008.59 1008.54 1008.67 1008.81 1008.99 1009.24 1009.39 1009.40 1009.40 1009.56 1009.86 1010.34 1010.88 1011.67 1012.36 1012.99 1013.56 1014.17 1014.72 1015.33 1015.84 1016.51 1017.21 1017.96 1018.49 1018.88 1019.25 1019.59 1020.09 1020.50 1021.06 1021.71 1022.22 1022.82 1023.04 1022.97 1023.20 1023.42 1023.95 1024.31 1025.03
Wind_Speed
7 6 2 4 5 5 4 7 5 9 4 5 7 6 8 5 3 4 3 11 18 13 11 11 13 13 14 15 15 14 14 14 14 13 11 12 11 11 10 10 10 9 9 9 8 8 7 7 7
5 3 5 3 5 3 6 6 9 6 5 11 10 6 7 3 5 9 6 12 17 15 10 10 13 14 15 15 14 14 15 14 14 13 12 11 10 10 9 9 9 8 8 8 7 7 6 6 5
3 2 4 4 3 5 5 3 8 9 11 4 7 4 5 6 11 8 13 15 14 12 10 10 13 13 14 14 14 13 13 13 12 13 11 11 9 9 8 9 8 7 6 6 4 4 5 5 4
2 5 5 3 8 10 5 10 9 8 10 5 9 6 2 0 6 11 18 17 13 10 9 10 11 12 13 13 13 12 12 13 11 12 11 10 9 8 8 8 7 6 6 6 7 8 5 4 4
4 4 2 3 7 7 5 8 14 16 9 4 3 5 3 4 15 22 20 16 15 10 8 8 10 11 12 12 13 12 11 12 11 11 11 10 11 9 7 8 8 7 7 6 6 6 6 6 5
4 3 2 3 6 8 8 11 10 13 5 6 7 6 3 9 21 18 17 14 13 14 9 8 10 11 11 12 12 11 11 12 11 12 11 11 11 12 10 10 9 8 7 7 6 6 6 7 8
5 3 5 4 5 10 5 10 6 8 1 3 15 6 5 9 14 16 16 15 12 12 12 8 10 9 10 11 11 11 11 11 11 12 13 12 12 13 11 10 10 9 8 7 6 5 7 8 8
5 4 3 4 3 10 6 10 6 6 5 4 7 7 10 12 17 16 14 14 13 11 11 10 8 8 7 7 11 13 12 11 13 12 12 12 12 12 11 9 8 7 7 7 8 9 9 9 9
4 3 4 6 3 8 8 6 9 2 5 3 4 8 15 21 20 17 14 11 11 11 13 10 9 7 8 7 8 12 12 11 12 11 12 9 5 6 7 7 7 8 6 7 11 12 11 9 9
5 3 7 8 5 8 7 3 7 7 5 5 5 11 20 22 21 20 17 16 14 15 13 10 9 9 9 7 6 6 7 4 5 5 6 5 6 5 5 7 8 11 11 11 10 10 9 7 4
3 7 5 10 13 9 7 3 3 4 3 5 8 21 22 21 17 17 15 16 17 16 12 12 11 10 8 7 5 4 4 3 3 5 4 5 5 4 4 4 4 3 8 4 5 5 4 5 4
4 7 5 8 4 5 5 4 5 6 10 5 14 21 22 21 19 18 15 15 16 15 15 13 12 10 8 7 6 6 5 4 3 4 5 5 4 5 5 4 4 4 3 5 5 3 4 5 5
5 6 8 8 13 6 5 7 5 9 10 6 11 15 18 17 16 14 14 12 14 16 16 14 12 10 9 7 4 5 5 5 4 5 5 5 5 6 5 4 4 4 4 4 4 4 4 5 5
5 11 12 8 10 6 7 6 2 12 7 5 16 18 17 18 20 14 15 16 16 17 18 16 13 10 7 5 5 4 5 5 5 4 5 6 6 7 5 4 4 4 3 3 3 3 3 3 3
6 10 14 13 7 6 3 6 9 14 8 5 16 17 17 18 15 20 21 20 19 14 18 17 16 8 8 8 6 5 5 5 5 4 5 6 6 6 6 5 4 4 3 4 4 4 4 4 4
6 4 5 3 5 10 7 9 17 16 7 12 12 14 17 16 22 20 20 21 19 17 18 15 12 13 12 10 6 5 4 5 4 4 3 5 6 6 5 5 4 3 4 4 4 4 3 3 3
3 6 8 9 6 7 7 8 16 16 9 12 10 14 16 17 19 15 19 20 20 20 18 13 15 16 15 12 9 7 6 5 4 4 3 5 6 6 6 4 4 4 4 4 3 4 3 4 4
6 6 6 7 6 4 10 9 10 11 10 13 11 13 15 17 23 16 19 19 20 19 18 18 15 18 16 12 10 7 6 4 4 3 3 4 3 5 5 4 5 5 4 4 4 4 3 2 3
7 12 15 16 22 7 11 6 8 10 5 8 9 9 15 18 22 15 18 19 18 17 19 20 18 15 14 11 10 8 6 4 3 4 4 4 4 5 5 4 5 4 4 4 3 3 6 7 5
14 17 19 17 16 14 11 9 9 7 7 8 11 11 11 18 10 11 14 18 21 22 20 17 16 15 12 10 7 6 8 4 4 4 5 5 5 5 5 5 4 5 4 5 5 3 2 3 5
16 15 16 15 12 6 6 9 4 7 4 7 10 12 10 14 18 15 18 19 19 20 19 18 18 16 13 13 10 8 7 6 4 4 4 3 5 5 6 5 4 5 4 4 4 4 4 3 4
17 13 14 12 6 10 3 9 6 8 12 10 9 10 12 11 10 21 22 21 20 18 16 16 15 14 11 13 11 16 9 8 4 5 4 4 5 5 5 5 5 5 3 5 4 4 3 3 3
14 11 17 13 5 3 2 7 2 4 5 8 12 15 14 13 17 21 24 23 17 14 13 13 13 12 11 10 13 11 11 4 7 8 9 6 5 6 6 5 5 5 3 4 6 5 6 3 3
7 7 6 2 3 12 7 6 3 2 3 5 12 14 18 13 8 9 12 16 15 12 12 12 12 8 10 11 14 15 14 12 11 9 7 5 4 4 5 5 4 4 4 5 4 5 6 5 5
7 1 4 4 3 12 11 9 4 4 5 5 9 13 15 17 16 12 11 14 15 13 10 7 7 7 7 9 11 11 13 14 15 13 9 10 6 4 5 5 5 3 4 5 5 5 6 5 5
13 13 7 6 5 3 2 6 4 6 5 6 11 12 15 15 13 14 14 13 12 10 8 7 4 6 5 6 6 7 10 8 9 10 9 6 4 4 4 4 4 4 4 5 6 4 4 6 5
7 14 11 9 6 3 4 3 3 8 7 8 11 13 13 13 11 12 11 9 8 7 6 9 9 6 6 5 6 6 7 7 8 8 7 6 6 5 5 5 4 3 4 5 5 4 5 5 5
7 8 7 3 5 5 4 6 4 2 10 11 10 8 5 7 8 8 8 8 8 10 8 9 9 9 7 7 6 6 7 8 9 10 9 9 7 7 6 5 4 4 4 4 5 4 4 6 4
1 5 8 5 3 3 3 3 2 6 8 11 8 8 6 6 4 7 7 6 10 7 7 9 11 12 10 9 8 9 8 9 9 9 9 9 8 8 7 5 4 4 3 4 5 5 5 8 7
3 4 9 4 6 4 3 5 6 7 7 7 7 7 4 6 7 7 9 9 9 8 9 10 10 11 9 9 10 9 9 8 8 8 8 9 9 7 7 6 5 3 3 4 5 6 6 8 7
Wind_Direction
299 313 118 54 40 60 267 265 267 299 196 322 121 128 143 68 142 203 73 129 130 133 136 135 134 132 131 135 135 135 134 132 129 124 123 122 119 115 116 114 112 115 112 108 105 98 85 74 65
319 12 42 82 86 16 269 261 2 302 112 143 85 79 44 68 67 116 96 143 137 133 135 135 134 131 131 134 135 137 137 136 133 133 133 126 121 120 124 114 110 109 114 116 114 108 105 89 71
242 55 80 98 122 207 224 254 344 313 193 179 117 56 114 131 135 130 125 134 127 126 133 139 135 132 132 132 135 135 134 132 130 129 131 125 125 123 120 113 110 103 102 104 93 102 100 84 62
79 14 28 101 239 249 272 303 269 280 292 47 112 68 66 158 132 138 136 132 123 127 124 134 131 130 131 129 128 129 132 128 129 128 126 123 115 108 103 103 97 89 77 67 52 57 66 45 28
37 66 51 276 269 267 279 257 283 290 234 144 148 160 45 21 122 130 138 135 127 122 122 131 128 128 126 124 123 125 126 119 126 120 116 114 109 101 98 91 79 64 58 54 40 27 22 6 355
24 92 73 240 266 280 289 274 274 281 193 162 99 103 119 149 135 140 132 128 129 127 123 124 125 121 120 121 120 122 120 121 126 121 113 108 102 92 79 73 70 67 56 46 38 24 9 353 345
128 87 220 217 260 304 276 311 311 300 132 193 140 95 134 150 138 132 125 119 122 126 129 122 130 114 109 113 119 115 115 119 118 115 111 111 104 102 100 90 82 80 75 67 54 32 19 10 0
118 109 264 236 214 276 276 322 295 6 23 98 152 155 180 150 137 126 118 122 133 133 133 127 122 121 111 121 127 123 116 119 115 116 120 124 115 105 99 98 100 90 77 57 30 25 18 8 6
106 8 254 250 200 253 300 326 304 345 57 350 345 155 148 138 133 125 127 131 137 138 141 136 131 122 119 121 135 127 132 128 125 127 134 122 120 117 113 121 101 74 66 63 59 67 58 41 29
117 176 238 215 225 264 268 263 294 357 33 351 18 112 131 145 146 143 154 152 157 154 144 139 132 133 134 138 132 130 135 140 144 143 141 132 136 125 123 105 86 77 73 72 58 57 51 44 28
182 213 229 272 264 223 263 259 276 344 329 204 195 155 154 155 156 151 159 158 157 156 151 148 147 152 147 149 150 149 140 133 128 141 137 120 110 114 95 83 74 74 67 51 45 37 37 34 29
306 253 235 274 277 311 260 239 223 194 247 184 178 170 161 164 166 162 158 160 156 159 154 149 154 159 158 152 158 157 135 129 118 119 139 121 113 106 98 97 97 75 58 61 49 42 33 31 25
231 260 310 292 290 268 253 264 251 252 265 148 152 178 184 172 163 158 155 149 156 162 158 155 159 163 169 163 159 148 134 121 118 100 97 116 117 110 109 104 99 86 74 74 54 45 36 28 15
310 313 299 291 294 265 260 271 62 276 276 159 163 188 189 186 174 156 163 165 172 165 167 155 164 171 154 137 125 116 110 111 93 94 112 124 123 124 123 121 100 91 96 94 95 83 57 38 13
291 305 306 280 272 273 341 314 250 256 253 214 177 189 194 197 177 180 179 175 171 171 165 165 164 153 140 122 113 109 117 104 98 108 121 119 118 120 124 117 103 115 106 95 70 53 51 36 13
325 289 274 250 256 265 114 273 264 260 216 256 184 194 199 197 194 185 186 178 173 162 168 165 152 141 132 118 105 104 81 84 85 84 87 102 112 115 106 103 100 112 76 61 47 35 39 25 6
254 256 257 301 225 235 159 256 259 255 199 239 190 197 201 204 209 194 181 179 167 165 160 148 141 138 131 117 113 103 96 86 96 85 68 89 110 115 114 110 113 94 74 71 63 46 63 16 352
212 232 242 247 263 159 290 259 290 273 194 218 234 202 203 209 212 187 176 173 166 161 153 146 148 143 138 129 121 107 98 94 84 72 67 78 102 103 96 97 97 89 79 60 65 86 42 44 344
278 278 274 269 281 294 274 272 291 302 308 276 238 212 211 213 217 182 170 163 155 154 151 154 149 149 140 139 135 128 127 116 88 85 78 65 95 93 95 99 95 92 93 94 84 95 44 25 2
245 257 266 276 270 280 263 262 266 263 241 235 253 242 224 216 214 171 167 161 163 160 158 151 146 150 147 142 138 129 135 115 119 106 74 75 79 95 93 107 114 118 102 75 62 78 114 58 12
249 249 258 258 285 282 299 282 279 271 275 279 256 252 249 201 195 168 160 165 163 163 162 153 153 153 150 139 121 115 99 97 89 71 66 44 73 77 96 97 105 95 89 87 76 71 84 109 31
253 262 269 271 264 277 107 288 326 296 289 281 354 334 298 237 190 165 164 166 167 164 155 151 152 147 146 146 140 150 145 140 151 139 125 93 83 78 72 84 81 83 89 92 84 72 86 109 85
260 263 260 262 239 281 221 297 86 339 309 348 344 340 311 281 176 175 172 166 152 145 143 143 143 147 153 154 148 149 148 114 129 131 130 124 115 111 103 102 104 104 100 98 95 79 73 65 100
306 308 327 325 69 271 193 197 44 13 296 325 7 11 12 6 137 130 130 130 126 123 128 134 148 147 156 162 160 161 153 142 141 144 138 140 128 108 105 106 109 118 116 108 100 93 87 86 74
270 81 308 300 177 253 185 204 227 163 92 65 38 32 43 48 53 70 96 113 111 111 112 122 147 155 162 161 171 162 149 156 155 152 151 154 152 150 151 139 145 138 135 115 101 92 89 81 75
222 189 182 216 209 271 13 226 167 130 109 75 66 58 56 67 74 82 86 87 97 116 138 160 154 124 136 173 156 140 146 155 157 153 152 145 133 122 133 132 133 135 124 114 105 96 100 93 89
223 229 199 256 318 323 230 101 117 148 106 76 74 68 62 57 63 80 88 103 105 107 131 153 140 120 112 101 105 116 134 135 140 120 125 123 120 129 126 130 126 119 109 105 100 107 103 110 99
162 161 134 158 193 218 229 198 211 145 113 98 86 82 108 93 75 77 110 139 144 152 142 124 122 117 111 101 104 108 112 111 120 130 131 132 131 123 128 133 141 114 103 114 103 93 104 98 81
210 120 63 116 183 209 183 226 184 139 134 125 126 145 134 119 163 174 186 178 165 145 125 113 114 125 128 122 115 113 111 113 115 121 129 138 128 130 128 136 131 90 101 117 107 103 96 89 85
75 103 135 141 188 220 173 226 167 159 150 128 115 112 135 177 191 193 179 161 145 137 128 134 141 142 137 129 124 120 120 120 120 127 132 133 131 126 120 100 80 97 135 130 116 106 103 110 105